Skip Page Navigation
NASA JPL Caltech
NASA Logo - Jet Propulsion Laboratory + View the NASA Portal
+ Center for Near-Earth Object Studies
JPL Home Earth Solar System Stars & Galaxies Technology
JPL Solar System Dynamics
BODIES ORBITS EPHEMERIDES TOOLS PHYSICAL DATA DISCOVERY FAQ SITE MAP
JPL Small-Body Database Browser
Search: [ help ]  
134108 (2004 XP158)
Classification: Main-belt Asteroid          SPK-ID: 2134108
Ephemeris | Orbit Diagram | Orbital Elements | Mission Design | Physical Parameters | Discovery Circumstances | Close-Approach Data ]

[ show orbit diagram ]
Orbital Elements at Epoch 2459000.5 (2020-May-31.0) TDB
Reference: JPL 21 (heliocentric ecliptic J2000)
 Element Value Uncertainty (1-sigma)   Units 
e .1030331893699728 4.5544e-08  
a 3.054528722647806 2.3733e-08 au
q 2.739810886331214 1.4058e-07 au
i 2.02458260936035 4.3413e-06 deg
node 133.9790352389881 0.00013099 deg
peri 48.41604944030804 0.00013263 deg
M 251.9894182192362 2.3004e-05 deg
tp 2459585.530558162806
(2022-Jan-06.03055816)
0.00012807 TDB
period 1949.91080935108
5.34
2.2726e-05
6.222e-08
d
yr
n .1846238290867294 2.1518e-09 deg/d
Q 3.369246558964398 2.6179e-08 au
  Orbit Determination Parameters
   # obs. used (total)      572  
   data-arc span      21941 days (60.07 yr)  
   first obs. used      1960-09-26  
   last obs. used      2020-10-22  
   planetary ephem.      DE431  
   SB-pert. ephem.      SB431-N16  
   condition code      0  
   norm. resid. RMS      .54523  
   source      ORB  
   producer      Otto Matic  
   solution date      2020-Nov-12 16:11:47  

Additional Information
 Earth MOID = 1.74291 au 
 Jupiter MOID = 1.58797 au 
 T_jup = 3.227 
[ hide covariance matrix ]
Orbital Elements at Epoch 2457109.5 (2015-Mar-28.0) TDB
Reference: JPL 21 (heliocentric ecliptic J2000)
 Element Value Uncertainty (1-sigma)   Units 
e .1037734524712611 4.5614e-08  
q 2.735798764289263 1.4074e-07 au
tp 2457642.625219661852
(2016-Sep-11.12521966)
0.00011701 TDB
node 134.0075927456661 0.00013092 deg
peri 49.6943975890073 0.00013255 deg
i 2.024730089177965 4.3451e-06 deg
  Orbit Determination Parameters
   # obs. used (total)      572  
   data-arc span      21941 days (60.07 yr)  
   first obs. used      1960-09-26  
   last obs. used      2020-10-22  
   planetary ephem.      DE431  
   SB-pert. ephem.      SB431-N16  
   condition code      0  
   norm. resid. RMS      .54523  
   source      ORB  
   producer      Otto Matic  
   solution date      2020-Nov-12 16:11:47  

Additional Information
 Jupiter MOID = 1.58797 au 
 T_jup = 3.227 
Orbit Covariance (6×6)
  e q tp node peri i
e 2.080611753881932E-15 -6.346304916092474E-15 -3.2469367013382E-13 1.536157417817734E-15 -5.568159867987547E-15 3.256630097269942E-16
q -6.346304916092474E-15 1.980662092201595E-14 1.905449257143895E-12 -4.274176130103547E-15 1.570799853388228E-13 -8.406340130830356E-16
tp -3.2469367013382E-13 1.905449257143895E-12 1.369214078704272E-8 -5.249768494377306E-12 2.447296304873484E-9 8.016022145067375E-13
node 1.536157417817734E-15 -4.274176130103547E-15 -5.249768494377306E-12 1.714013865161548E-8 -1.713005893319062E-8 8.729321319955291E-11
peri -5.568159867987547E-15 1.570799853388228E-13 2.447296304873484E-9 -1.713005893319062E-8 1.75684445719006E-8 -8.708895513820438E-11
i 3.256630097269942E-16 -8.406340130830356E-16 8.016022145067375E-13 8.729321319955291E-11 -8.708895513820438E-11 1.887965083440476E-11

Ephemeris | Orbit Diagram | Orbital Elements | Mission Design | Physical Parameters | Discovery Circumstances | Close-Approach Data ]

Physical Parameter Table
Parameter Symbol Value Units Sigma Reference Notes
absolute magnitude H 15.3   n/a MPO453825  
diameter diameter 5.079 km 0.288 urn:nasa:pds:neowise_diameters_albedos::2.0[mainbelt] (http://adsabs.harvard.edu/abs/2011ApJ...741...68M)  
rotation period rot_per 8.45516 h n/a LCDB (Rev. 2019-August); Warner et al., 2009 sidereal period (not synodic); Result based on less than full coverage, so that the period may be wrong by 30 percent or so.
Published Reference List:
[Durech, J.; Hanus, J.; Ali-Lagoa, V. (2018) Astron. Astrophys. 617, A57.]
geometric albedo albedo 0.047   0.008 urn:nasa:pds:neowise_diameters_albedos::2.0[mainbelt] (http://adsabs.harvard.edu/abs/2011ApJ...741...68M)  

134108 (2004 XP158)          Discovered 2004-Dec-14 by Spacewatch at Kitt Peak
Reference: 20060711/Numbers.arcLast Updated: 2006-07-17

[ show close-approach data ]
Alternate Designations
 2004 XP158 = 2000 BU21 = 2003 UP300 
Ephemeris | Orbit Diagram | Orbital Elements | Mission Design | Physical Parameters | Discovery Circumstances | Close-Approach Data ]
ABOUT SSD CREDITS/AWARDS PRIVACY/COPYRIGHT GLOSSARY LINKS
FirstGov 2020-Nov-28 08:56 UT
(server date/time)  
NASA Home Page
Site Manager:   Ryan S. Park
Webmaster  Alan B. Chamberlin